Location: Medlow Airstrip Trail, Medlow Bath NSW 2780, Australia
(33.6682°S, 150.3233°E)
Time: 17:47:03
(UTC+11:00)

Explorer 11/Cluster Stage 4 - Pass Details

Date: 29 September 2019
Orbit: 467 x 1259 km, 28.8° (Epoch: 20 October)

Event Time Altitude Azimuth Distance (km) Brightness Sun altitude
Rises 11:55:48 0° 277° (W) 3,139 9.8 58.5°
Reaches altitude 10° 11:58:43 10° 295° (WNW) 2,360 9.4 58.5°
Maximum altitude 12:02:38 19° 339° (NNW) 1,977 9.5 58.4°
Drops below altitude 10° 12:07:07 10° 22° (NNE) 2,748 10.0 58.3°
Sets 12:10:52 0° 38° (NE) 3,851 10.4 58.2°
